AFR1486 LFPG-EGPH

Flight info

Callsign AFR1486
Flight time 1h 26m
Altitude 36000
Route ATREX DCT SOVAT L613 HALIF DCT ABEVI DCT INPIP
Aircraft E190/M-SDE2E3FGIJ1RWY/HB1

Departure

Time 2026-05-08 07:31
Airport Charles de Gaulle International Airport (LFPG)

Arrival

Time 2026-05-08 08:57
Airport Edinburgh Airport (EGPH)
Time Latitude Longitude Altitude Speed Heading
2026-05-08 07:12 49.00389 2.60092 353 ft 0 kts 356°
2026-05-08 07:17 49.00374 2.60098 361 ft 4 kts 346°
2026-05-08 07:17 49.00350 2.60112 358 ft 4 kts 309°
2026-05-08 07:18 49.00341 2.60146 359 ft 3 kts 265°
2026-05-08 07:18 49.00341 2.60150 360 ft 3 kts 264°
2026-05-08 07:21 49.00340 2.60127 363 ft 4 kts 264°
2026-05-08 07:21 49.00336 2.60070 358 ft 7 kts 264°
2026-05-08 07:21 49.00331 2.59983 353 ft 9 kts 265°
2026-05-08 07:21 49.00326 2.59875 353 ft 11 kts 266°
2026-05-08 07:22 49.00320 2.59750 353 ft 13 kts 265°
2026-05-08 07:22 49.00298 2.59617 354 ft 14 kts 239°
2026-05-08 07:22 49.00256 2.59493 356 ft 14 kts 205°
2026-05-08 07:22 49.00154 2.59493 353 ft 15 kts 175°
2026-05-08 07:23 49.00043 2.59508 353 ft 17 kts 175°
2026-05-08 07:23 48.99979 2.59394 353 ft 16 kts 265°
2026-05-08 07:23 48.99969 2.59214 353 ft 18 kts 265°
2026-05-08 07:23 48.99959 2.59021 358 ft 19 kts 265°
2026-05-08 07:24 48.99949 2.58815 357 ft 20 kts 265°
2026-05-08 07:24 48.99937 2.58599 353 ft 21 kts 265°
2026-05-08 07:24 48.99924 2.58370 353 ft 22 kts 264°
2026-05-08 07:24 48.99910 2.58131 357 ft 23 kts 266°
2026-05-08 07:25 48.99899 2.57880 353 ft 24 kts 266°
2026-05-08 07:25 48.99885 2.57622 358 ft 25 kts 265°
2026-05-08 07:25 48.99856 2.57085 353 ft 25 kts 265°
2026-05-08 07:26 48.99842 2.56822 356 ft 24 kts 266°
2026-05-08 07:26 48.99830 2.56595 353 ft 21 kts 265°
2026-05-08 07:26 48.99818 2.56363 353 ft 23 kts 264°
2026-05-08 07:26 48.99804 2.56135 357 ft 17 kts 265°
2026-05-08 07:27 48.99771 2.56027 358 ft 11 kts 192°
2026-05-08 07:27 48.99721 2.56032 353 ft 0 kts 175°
2026-05-08 07:28 48.99720 2.56032 353 ft 0 kts 175°
2026-05-08 07:28 48.99702 2.56034 353 ft 5 kts 175°
2026-05-08 07:28 48.99654 2.56040 353 ft 8 kts 175°
2026-05-08 07:29 48.99612 2.56062 357 ft 4 kts 114°
2026-05-08 07:29 48.99613 2.56087 354 ft 0 kts 83°
2026-05-08 07:29 48.99613 2.56089 354 ft 0 kts 83°
2026-05-08 07:29 48.99614 2.56095 354 ft 1 kts 83°
2026-05-08 07:30 48.99615 2.56107 362 ft 3 kts 84°
2026-05-08 07:30 48.99621 2.56225 355 ft 24 kts 86°
2026-05-08 07:30 48.99651 2.56773 354 ft 84 kts 86°
2026-05-08 07:30 48.99716 2.57963 359 ft 139 kts 84°
2026-05-08 07:31 48.99793 2.59541 742 ft 156 kts 87°
2026-05-08 07:31 48.99822 2.61192 880 ft 151 kts 86°
2026-05-08 07:31 48.99899 2.62759 834 ft 143 kts 84°
2026-05-08 07:31 48.99989 2.64244 1058 ft 144 kts 83°
2026-05-08 07:32 49.00141 2.65798 1463 ft 156 kts 82°
2026-05-08 07:32 49.00257 2.67559 1890 ft 176 kts 86°
2026-05-08 07:32 49.00337 2.69524 2356 ft 195 kts 86°
2026-05-08 07:32 49.00434 2.71667 2832 ft 210 kts 85°
2026-05-08 07:33 49.00558 2.73941 3381 ft 223 kts 85°
2026-05-08 07:33 49.00704 2.76352 4007 ft 235 kts 81°
2026-05-08 07:33 49.01406 2.78751 4288 ft 264 kts 47°
2026-05-08 07:33 49.02968 2.80243 5017 ft 270 kts 17°
2026-05-08 07:34 49.04827 2.80508 5843 ft 271 kts 351°
2026-05-08 07:34 49.06648 2.79786 6685 ft 271 kts 342°
2026-05-08 07:34 49.08438 2.78878 7439 ft 271 kts 341°
2026-05-08 07:34 49.10241 2.77967 8106 ft 275 kts 341°
2026-05-08 07:35 49.12076 2.77049 8760 ft 280 kts 341°
2026-05-08 07:35 49.13936 2.76102 9462 ft 283 kts 340°
2026-05-08 07:35 49.15809 2.75119 10156 ft 287 kts 339°
2026-05-08 07:35 49.17713 2.74124 10813 ft 291 kts 339°
2026-05-08 07:36 49.19650 2.73126 11443 ft 296 kts 339°
2026-05-08 07:36 49.21616 2.72103 12088 ft 300 kts 339°
2026-05-08 07:36 49.23600 2.71034 12728 ft 305 kts 338°
2026-05-08 07:36 49.25605 2.69913 13372 ft 309 kts 338°
2026-05-08 07:37 49.27638 2.68773 14008 ft 313 kts 338°
2026-05-08 07:37 49.29661 2.67640 14637 ft 315 kts 338°
2026-05-08 07:37 49.31728 2.66471 15259 ft 318 kts 338°
2026-05-08 07:37 49.33808 2.65282 15876 ft 321 kts 337°
2026-05-08 07:38 49.35906 2.64073 16484 ft 324 kts 337°
2026-05-08 07:38 49.38026 2.62855 17090 ft 327 kts 337°
2026-05-08 07:38 49.40159 2.61606 17710 ft 330 kts 337°
2026-05-08 07:38 49.42308 2.60323 18333 ft 333 kts 336°
2026-05-08 07:39 49.44470 2.59025 18896 ft 335 kts 336°
2026-05-08 07:39 49.46650 2.57705 19473 ft 338 kts 336°
2026-05-08 07:39 49.48843 2.56371 20046 ft 340 kts 336°
2026-05-08 07:39 49.51047 2.55015 20602 ft 343 kts 336°
2026-05-08 07:40 49.53262 2.53633 21148 ft 345 kts 335°
2026-05-08 07:40 49.55489 2.52220 21674 ft 347 kts 335°
2026-05-08 07:40 49.57728 2.50782 22197 ft 350 kts 335°
2026-05-08 07:40 49.59976 2.49323 22719 ft 352 kts 334°
2026-05-08 07:41 49.62234 2.47839 23243 ft 354 kts 334°
2026-05-08 07:41 49.64503 2.46334 23752 ft 356 kts 334°
2026-05-08 07:41 49.66787 2.44805 24190 ft 359 kts 334°
2026-05-08 07:41 49.69078 2.43255 24624 ft 361 kts 333°
2026-05-08 07:42 49.71384 2.41680 25052 ft 363 kts 333°
2026-05-08 07:42 49.73701 2.40086 25452 ft 366 kts 333°
2026-05-08 07:42 49.76033 2.38466 25852 ft 368 kts 333°
2026-05-08 07:42 49.78373 2.36828 26248 ft 370 kts 333°
2026-05-08 07:43 49.80765 2.35295 26613 ft 374 kts 338°
2026-05-08 07:43 49.83222 2.33941 26989 ft 376 kts 338°
2026-05-08 07:43 49.85690 2.32553 27357 ft 378 kts 338°
2026-05-08 07:43 49.88170 2.31152 27725 ft 381 kts 337°
2026-05-08 07:44 49.90664 2.29734 28085 ft 383 kts 337°
2026-05-08 07:44 49.93169 2.28306 28441 ft 385 kts 337°
2026-05-08 07:44 49.95687 2.26864 28794 ft 387 kts 337°
2026-05-08 07:44 49.98224 2.25409 29124 ft 389 kts 338°
2026-05-08 07:45 50.00771 2.23946 29461 ft 391 kts 338°
2026-05-08 07:45 50.03331 2.22474 29777 ft 394 kts 338°
2026-05-08 07:45 50.05908 2.20989 30093 ft 396 kts 338°
2026-05-08 07:45 50.08494 2.19498 30364 ft 397 kts 337°
2026-05-08 07:46 50.11090 2.17998 30636 ft 399 kts 337°
2026-05-08 07:46 50.13694 2.16492 30896 ft 400 kts 337°
2026-05-08 07:46 50.16309 2.14978 31151 ft 401 kts 337°
2026-05-08 07:46 50.18894 2.13478 31389 ft 403 kts 337°
2026-05-08 07:47 50.21527 2.11951 31620 ft 405 kts 337°
2026-05-08 07:47 50.24175 2.10413 31865 ft 406 kts 337°
2026-05-08 07:47 50.26827 2.08870 32115 ft 408 kts 337°
2026-05-08 07:47 50.29491 2.07319 32353 ft 409 kts 337°
2026-05-08 07:48 50.32163 2.05761 32591 ft 411 kts 337°
2026-05-08 07:48 50.34846 2.04196 32819 ft 412 kts 337°
2026-05-08 07:48 50.37443 2.02321 33003 ft 410 kts 324°
2026-05-08 07:48 50.39672 1.99561 33250 ft 408 kts 316°
2026-05-08 07:49 50.41802 1.96611 33491 ft 410 kts 316°
2026-05-08 07:49 50.43946 1.93657 33710 ft 411 kts 316°
2026-05-08 07:49 50.46100 1.90693 33940 ft 413 kts 316°
2026-05-08 07:49 50.48262 1.87715 34153 ft 414 kts 316°
2026-05-08 07:50 50.50429 1.84731 34352 ft 415 kts 316°
2026-05-08 07:50 50.52605 1.81730 34527 ft 417 kts 316°
2026-05-08 07:50 50.54790 1.78713 34718 ft 419 kts 316°
2026-05-08 07:50 50.56979 1.75688 34909 ft 420 kts 316°
2026-05-08 07:51 50.59178 1.72644 35083 ft 421 kts 316°
2026-05-08 07:51 50.61381 1.69590 35270 ft 423 kts 316°
2026-05-08 07:51 50.63591 1.66522 35435 ft 424 kts 316°
2026-05-08 07:51 50.65806 1.63443 35627 ft 426 kts 316°
2026-05-08 07:52 50.68027 1.60351 35835 ft 426 kts 316°
2026-05-08 07:52 50.70244 1.57260 36154 ft 423 kts 316°
2026-05-08 07:52 50.72458 1.54167 36178 ft 429 kts 316°
2026-05-08 07:53 50.76979 1.47835 36193 ft 440 kts 316°
2026-05-08 07:53 50.81618 1.41372 36084 ft 446 kts 316°
2026-05-08 07:54 50.86301 1.34883 36094 ft 448 kts 316°
2026-05-08 07:54 50.90990 1.28361 36093 ft 448 kts 316°
2026-05-08 07:55 50.95666 1.21830 36098 ft 448 kts 316°
2026-05-08 07:55 51.00311 1.15325 36105 ft 448 kts 316°
2026-05-08 07:56 51.05011 1.08724 36103 ft 448 kts 316°
2026-05-08 07:56 51.09962 1.02767 36116 ft 450 kts 323°
2026-05-08 07:57 51.15125 0.97129 36107 ft 450 kts 323°
2026-05-08 07:57 51.20276 0.91460 36070 ft 449 kts 323°
2026-05-08 07:58 51.25406 0.85780 36062 ft 449 kts 323°
2026-05-08 07:58 51.30535 0.80084 36044 ft 449 kts 323°
2026-05-08 07:59 51.35661 0.74373 36102 ft 449 kts 323°
2026-05-08 07:59 51.40785 0.68649 36097 ft 449 kts 323°
2026-05-08 08:00 51.45905 0.62914 36100 ft 449 kts 323°
2026-05-08 08:00 51.50154 0.58142 36107 ft 449 kts 323°
2026-05-08 08:01 51.55272 0.52380 36099 ft 449 kts 323°
2026-05-08 08:01 51.60378 0.46615 36102 ft 447 kts 323°
2026-05-08 08:02 51.65460 0.40860 36100 ft 447 kts 323°
2026-05-08 08:02 51.70542 0.35090 36103 ft 447 kts 323°
2026-05-08 08:03 51.75623 0.29304 36102 ft 447 kts 323°
2026-05-08 08:03 51.80700 0.23509 36108 ft 447 kts 323°
2026-05-08 08:04 51.85769 0.17706 36104 ft 447 kts 322°
2026-05-08 08:04 51.90839 0.11884 36104 ft 447 kts 322°
2026-05-08 08:05 51.95903 0.06053 36100 ft 446 kts 322°
2026-05-08 08:05 52.00959 0.00212 36100 ft 446 kts 322°
2026-05-08 08:06 52.06248 -0.05013 36089 ft 444 kts 329°
2026-05-08 08:06 52.11680 -0.09776 36087 ft 444 kts 329°
2026-05-08 08:07 52.17111 -0.14571 36086 ft 444 kts 329°
2026-05-08 08:07 52.22494 -0.19353 36088 ft 444 kts 329°
2026-05-08 08:08 52.27917 -0.24185 36087 ft 444 kts 329°
2026-05-08 08:08 52.33333 -0.29019 36091 ft 444 kts 329°
2026-05-08 08:09 52.38761 -0.33838 36095 ft 444 kts 329°
2026-05-08 08:09 52.44183 -0.38668 36098 ft 443 kts 329°
2026-05-08 08:10 52.49600 -0.43510 36099 ft 443 kts 329°
2026-05-08 08:10 52.55014 -0.48362 36102 ft 443 kts 329°
2026-05-08 08:11 52.60419 -0.53222 36104 ft 443 kts 329°
2026-05-08 08:11 52.65823 -0.58093 36103 ft 443 kts 329°
2026-05-08 08:12 52.71226 -0.62979 36098 ft 443 kts 329°
2026-05-08 08:12 52.76592 -0.67844 36105 ft 443 kts 329°
2026-05-08 08:13 52.81986 -0.72749 36096 ft 443 kts 329°
2026-05-08 08:13 52.87376 -0.77664 36100 ft 442 kts 329°
2026-05-08 08:14 52.92767 -0.82594 36099 ft 442 kts 329°
2026-05-08 08:14 52.98151 -0.87531 36094 ft 442 kts 329°
2026-05-08 08:15 53.03538 -0.92484 36094 ft 442 kts 328°
2026-05-08 08:15 53.08919 -0.97434 36088 ft 442 kts 328°
2026-05-08 08:16 53.14299 -1.02398 36093 ft 441 kts 328°
2026-05-08 08:16 53.19627 -1.07327 36082 ft 438 kts 328°
2026-05-08 08:17 53.24949 -1.12267 36093 ft 438 kts 328°
2026-05-08 08:17 53.30283 -1.17231 36074 ft 439 kts 328°
2026-05-08 08:18 53.35611 -1.22203 36074 ft 439 kts 328°
2026-05-08 08:18 53.40939 -1.27191 36079 ft 439 kts 328°
2026-05-08 08:19 53.46263 -1.32199 36085 ft 439 kts 328°
2026-05-08 08:19 53.51579 -1.37214 36084 ft 438 kts 328°
2026-05-08 08:20 53.56859 -1.42211 36074 ft 438 kts 328°
2026-05-08 08:20 53.62178 -1.47258 36082 ft 438 kts 328°
2026-05-08 08:21 53.67491 -1.52314 36076 ft 438 kts 328°
2026-05-08 08:21 53.72795 -1.57379 36089 ft 435 kts 326°
2026-05-08 08:22 53.77766 -1.63130 36075 ft 433 kts 321°
2026-05-08 08:22 53.82671 -1.69049 36074 ft 433 kts 321°
2026-05-08 08:23 53.87575 -1.74970 36073 ft 433 kts 321°
2026-05-08 08:23 53.92477 -1.80897 36073 ft 433 kts 321°
2026-05-08 08:24 53.97376 -1.86839 36080 ft 433 kts 321°
2026-05-08 08:24 54.02280 -1.92804 36084 ft 434 kts 321°
2026-05-08 08:25 54.07186 -1.98789 36078 ft 434 kts 321°
2026-05-08 08:25 54.12087 -2.04784 36078 ft 434 kts 321°
2026-05-08 08:26 54.16990 -2.10798 36071 ft 433 kts 321°
2026-05-08 08:26 54.21870 -2.16803 36077 ft 431 kts 320°
2026-05-08 08:27 54.26748 -2.22826 36068 ft 433 kts 320°
2026-05-08 08:27 54.29131 -2.25771 35767 ft 421 kts 320°
2026-05-08 08:27 54.31493 -2.28692 35517 ft 406 kts 320°
2026-05-08 08:27 54.33707 -2.31437 35286 ft 391 kts 320°
2026-05-08 08:28 54.35875 -2.34130 35030 ft 378 kts 319°
2026-05-08 08:28 54.37972 -2.36738 34790 ft 366 kts 319°
2026-05-08 08:28 54.40010 -2.39283 34553 ft 360 kts 319°
2026-05-08 08:28 54.42046 -2.41831 34343 ft 365 kts 319°
2026-05-08 08:29 54.44116 -2.44426 34092 ft 370 kts 319°
2026-05-08 08:29 54.46203 -2.47038 33817 ft 373 kts 319°
2026-05-08 08:29 54.48307 -2.49676 33556 ft 376 kts 319°
2026-05-08 08:29 54.50422 -2.52332 33281 ft 378 kts 319°
2026-05-08 08:30 54.52550 -2.55002 32997 ft 379 kts 319°
2026-05-08 08:30 54.54682 -2.57679 32728 ft 381 kts 319°
2026-05-08 08:30 54.58954 -2.63053 32460 ft 384 kts 319°
2026-05-08 08:31 54.61129 -2.65796 31857 ft 388 kts 319°
2026-05-08 08:31 54.63313 -2.68545 31307 ft 389 kts 319°
2026-05-08 08:31 54.65496 -2.71299 30767 ft 389 kts 319°
2026-05-08 08:31 54.67682 -2.74060 30255 ft 389 kts 319°
2026-05-08 08:32 54.69882 -2.76810 29694 ft 392 kts 322°
2026-05-08 08:32 54.72323 -2.79008 29243 ft 401 kts 331°
2026-05-08 08:32 54.74932 -2.80860 28634 ft 407 kts 333°
2026-05-08 08:32 54.77573 -2.82647 28111 ft 409 kts 333°
2026-05-08 08:33 54.80228 -2.84451 27563 ft 410 kts 334°
2026-05-08 08:33 54.82874 -2.86258 27018 ft 408 kts 333°
2026-05-08 08:33 54.85504 -2.88063 26480 ft 405 kts 333°
2026-05-08 08:33 54.88081 -2.89843 25925 ft 403 kts 333°
2026-05-08 08:34 54.90659 -2.91684 25378 ft 399 kts 332°
2026-05-08 08:34 54.93214 -2.93551 24817 ft 397 kts 332°
2026-05-08 08:34 54.95754 -2.95409 24254 ft 395 kts 333°
2026-05-08 08:34 54.98285 -2.97255 23711 ft 394 kts 332°
2026-05-08 08:35 55.00811 -2.99099 23127 ft 391 kts 333°
2026-05-08 08:35 55.03311 -3.00921 22597 ft 388 kts 333°
2026-05-08 08:35 55.05790 -3.02731 22044 ft 386 kts 333°
2026-05-08 08:35 55.08258 -3.04534 21504 ft 382 kts 333°
2026-05-08 08:36 55.10700 -3.06324 20973 ft 380 kts 333°
2026-05-08 08:36 55.13129 -3.08104 20442 ft 377 kts 333°
2026-05-08 08:36 55.15545 -3.09878 19738 ft 377 kts 333°
2026-05-08 08:36 55.17958 -3.11649 19031 ft 375 kts 333°
2026-05-08 08:37 55.20358 -3.13412 18139 ft 373 kts 333°
2026-05-08 08:37 55.22734 -3.15158 17357 ft 366 kts 333°
2026-05-08 08:37 55.25067 -3.16871 16516 ft 362 kts 333°
2026-05-08 08:37 55.27368 -3.18562 15765 ft 356 kts 333°
2026-05-08 08:38 55.29634 -3.20149 15170 ft 345 kts 340°
2026-05-08 08:38 55.31996 -3.20583 14600 ft 339 kts
2026-05-08 08:38 55.34292 -3.20072 14187 ft 326 kts
2026-05-08 08:38 55.36528 -3.19531 13766 ft 322 kts
2026-05-08 08:39 55.38739 -3.19094 13334 ft 318 kts
2026-05-08 08:39 55.40922 -3.18718 12925 ft 313 kts
2026-05-08 08:39 55.43086 -3.18372 12519 ft 311 kts
2026-05-08 08:39 55.45237 -3.18033 12092 ft 309 kts
2026-05-08 08:40 55.47346 -3.17699 11693 ft 308 kts
2026-05-08 08:40 55.49473 -3.17365 11275 ft 307 kts
2026-05-08 08:40 55.51600 -3.17029 10868 ft 306 kts
2026-05-08 08:40 55.53715 -3.16697 10459 ft 304 kts
2026-05-08 08:41 55.55821 -3.16363 10060 ft 303 kts
2026-05-08 08:41 55.57914 -3.16037 9643 ft 300 kts
2026-05-08 08:41 55.59977 -3.15709 9261 ft 296 kts
2026-05-08 08:41 55.62026 -3.15388 8876 ft 294 kts
2026-05-08 08:42 55.64059 -3.15071 8457 ft 293 kts
2026-05-08 08:42 55.66083 -3.14749 8097 ft 291 kts
2026-05-08 08:42 55.68104 -3.14427 7692 ft 290 kts
2026-05-08 08:42 55.70105 -3.14111 7308 ft 289 kts
2026-05-08 08:43 55.72123 -3.13793 7038 ft 291 kts
2026-05-08 08:43 55.74060 -3.13016 7025 ft 286 kts 23°
2026-05-08 08:43 55.75843 -3.11296 6791 ft 293 kts 29°
2026-05-08 08:43 55.77584 -3.09497 6523 ft 286 kts 28°
2026-05-08 08:44 55.79285 -3.07738 6242 ft 279 kts 28°
2026-05-08 08:44 55.80947 -3.06018 5900 ft 274 kts 28°
2026-05-08 08:44 55.82571 -3.04324 5567 ft 268 kts 28°
2026-05-08 08:44 55.84154 -3.02671 5322 ft 259 kts 29°
2026-05-08 08:45 55.85681 -3.01069 5141 ft 252 kts 29°
2026-05-08 08:45 55.87174 -2.99478 4985 ft 250 kts 32°
2026-05-08 08:45 55.88587 -2.97736 4846 ft 251 kts 34°
2026-05-08 08:45 55.90021 -2.95934 4726 ft 253 kts 34°
2026-05-08 08:46 55.91477 -2.94106 4588 ft 252 kts 34°
2026-05-08 08:46 55.92887 -2.92325 4450 ft 251 kts 34°
2026-05-08 08:46 55.94310 -2.90539 4308 ft 249 kts 33°
2026-05-08 08:46 55.95723 -2.88745 4163 ft 250 kts 34°
2026-05-08 08:47 55.97136 -2.86950 4004 ft 248 kts 34°
2026-05-08 08:47 55.98536 -2.85174 3859 ft 246 kts 34°
2026-05-08 08:47 55.99928 -2.83384 3710 ft 248 kts 34°
2026-05-08 08:47 56.01329 -2.81617 3555 ft 244 kts 30°
2026-05-08 08:48 56.02890 -2.80731 3347 ft 232 kts 356°
2026-05-08 08:48 56.04375 -2.81463 3190 ft 217 kts 326°
2026-05-08 08:48 56.05649 -2.82807 3078 ft 209 kts 326°
2026-05-08 08:48 56.06868 -2.84066 3024 ft 196 kts 326°
2026-05-08 08:49 56.07972 -2.85361 3053 ft 187 kts 310°
2026-05-08 08:49 56.08576 -2.87370 3077 ft 184 kts 287°
2026-05-08 08:49 56.08830 -2.89587 3092 ft 181 kts 265°
2026-05-08 08:49 56.08680 -2.91819 3114 ft 181 kts 261°
2026-05-08 08:50 56.08639 -2.94089 3081 ft 185 kts 269°
2026-05-08 08:50 56.08610 -2.96387 3005 ft 181 kts 255°
2026-05-08 08:50 56.08280 -2.97731 3021 ft 178 kts 238°
2026-05-08 08:50 56.07597 -2.99488 3001 ft 167 kts 237°
2026-05-08 08:51 56.07021 -3.01293 2965 ft 167 kts 242°
2026-05-08 08:51 56.06451 -3.03098 2969 ft 166 kts 239°
2026-05-08 08:51 56.05851 -3.04847 3033 ft 165 kts 239°
2026-05-08 08:51 56.05265 -3.06610 3085 ft 161 kts 239°
2026-05-08 08:52 56.04721 -3.08254 3029 ft 149 kts 239°
2026-05-08 08:52 56.04205 -3.09796 2979 ft 141 kts 240°
2026-05-08 08:52 56.03707 -3.11291 2945 ft 139 kts 239°
2026-05-08 08:52 56.03219 -3.12753 3025 ft 134 kts 239°
2026-05-08 08:53 56.02737 -3.14193 3015 ft 141 kts 240°
2026-05-08 08:53 56.02236 -3.15695 2749 ft 137 kts 240°
2026-05-08 08:53 56.01762 -3.17114 2551 ft 129 kts 239°
2026-05-08 08:53 56.01312 -3.18457 2385 ft 125 kts 240°
2026-05-08 08:54 56.00862 -3.19800 2214 ft 127 kts 239°
2026-05-08 08:54 56.00400 -3.21179 2048 ft 132 kts 239°
2026-05-08 08:54 55.99928 -3.22587 1858 ft 131 kts 239°
2026-05-08 08:54 55.99464 -3.23971 1699 ft 126 kts 239°
2026-05-08 08:55 55.99032 -3.25265 1524 ft 120 kts 240°
2026-05-08 08:55 55.98603 -3.26544 1346 ft 119 kts 239°
2026-05-08 08:55 55.98182 -3.27784 1185 ft 116 kts 240°
2026-05-08 08:55 55.97761 -3.29037 1015 ft 120 kts 240°
2026-05-08 08:56 55.97332 -3.30315 913 ft 120 kts 240°
2026-05-08 08:56 55.96907 -3.31586 727 ft 119 kts 241°
2026-05-08 08:56 55.96478 -3.32862 581 ft 121 kts 241°
2026-05-08 08:56 55.96053 -3.34135 370 ft 118 kts 242°
2026-05-08 08:57 55.95614 -3.35427 203 ft 120 kts 241°
2026-05-08 08:57 55.95208 -3.36640 113 ft 100 kts 239°
2026-05-08 08:57 55.94931 -3.37454 110 ft 59 kts 239°
2026-05-08 08:57 55.94758 -3.37963 114 ft 26 kts 239°
2026-05-08 08:58 55.94684 -3.38049 113 ft 13 kts 156°
2026-05-08 08:58 55.94609 -3.37967 114 ft 13 kts 148°
2026-05-08 08:58 55.94609 -3.37830 112 ft 14 kts 58°
2026-05-08 08:58 55.94663 -3.37676 114 ft 16 kts 59°
2026-05-08 08:59 55.94723 -3.37497 115 ft 18 kts 59°
2026-05-08 08:59 55.94790 -3.37296 113 ft 20 kts 59°
2026-05-08 08:59 55.94866 -3.37074 115 ft 22 kts 59°
2026-05-08 08:59 55.94928 -3.36883 115 ft 10 kts 71°
2026-05-08 09:00 55.94884 -3.36791 114 ft 11 kts 154°
2026-05-08 09:00 55.94804 -3.36778 115 ft 12 kts 178°
2026-05-08 09:00 55.94752 -3.36748 113 ft 6 kts 184°
2026-05-08 09:00 55.94742 -3.36809 115 ft 6 kts 268°
2026-05-08 09:01 55.94742 -3.36865 115 ft 2 kts 269°
2026-05-08 09:01 55.94742 -3.36876 115 ft 0 kts 269°